Weather Roundup
Issued by NWS Chicago, IL

Home | Current Version | Previous Version | Text Only | Print | Product List | Glossary On
Versions: 1 2 3 4 5 6 7 8 9 10 11 12 13 14 15 16 17 18 19 20 21 22 23 24 25 26 27 28 29 30 31 32 33 34 35 36 37 38 39 40 41 42 43 44 45 46 47 48 49 50
883
NZUS59 KLOT 070608
HRRLOT

CHICAGO AREA WEATHER ROUNDUP
NATIONAL WEATHER SERVICE CHICAGO/ROMEOVILLE IL
1200 AM CST SUN FEB 07 2016

NOTE: "FAIR" INDICATES FEW OR NO CLOUDS BELOW 12,000 FEET WITH NO
SIGNIFICANT WEATHER AND/OR OBSTRUCTIONS TO VISIBILITY.

* THESE STATIONS ARE NOT UNDER NWS QUALITY CONTROL. THEY ALSO MAY NOT
  REPORT WEATHER SUCH AS PRECIPITATION OR FOG.

ILZ005-006-012>014-019>023-070700-
NORTHEAST ILLINOIS

CITY           SKY/WX    TMP DP  RH WIND       PRES   REMARKS
OHARE          PTCLDY    34  29  82 S7        30.04F WCI  28
6HR MIN TEMP:  30; 6HR MAX TEMP:  37;

MIDWAY         MOCLDY    35  28  75 S6        30.05F WCI  30
6HR MIN TEMP:  34; 6HR MAX TEMP:  39;

AURORA         PTCLDY    33  28  81 S6        30.05S WCI  28
6HR MIN TEMP:  31; 6HR MAX TEMP:  35;

LANSING*       PTCLDY    32  29  88 SW5       30.07F WCI  27
JOLIET*        MOCLDY    30  29  95 CALM      30.06F
WAUKEGAN       CLOUDY    32  29  88 SW7       30.02F WCI  26
6HR MIN TEMP:  29; 6HR MAX TEMP:  33;

DUPAGE AIRPORT MOCLDY    30  26  85 S6        30.03F WCI  24
6HR MIN TEMP:  28; 6HR MAX TEMP:  34;

WHEELING       MOCLDY    32  28  85 S5        30.05F WCI  27
6HR MIN TEMP:  28; 6HR MAX TEMP:  38;

KANKAKEE*      CLEAR     31  28  90 SW5       30.08F WCI  26
MORRIS*          N/A     32  29  89 CALM      30.03F
LEWIS AIRPORT* PTCLDY    31  28  89 S6        30.05F WCI  25
$$

WIZ051-052-058>065-066-070>072-070700-
SOUTHEAST WISCONSIN

CITY           SKY/WX    TMP DP  RH WIND       PRES   REMARKS
MILWAUKEE      CLOUDY    32  27  81 SW7       30.00F WCI  26
6HR MIN TEMP:  30; 6HR MAX TEMP:  34;

KENOSHA*       CLOUDY    32  28  85 SW5       30.01F WCI  27
RACINE*        CLOUDY    33  27  78 SW8       30.03F WCI  26
BURLINGTON     MOCLDY    29  27  91 SW5       30.00F WCI  24
WAUKESHA       MOCLDY    30  28  93 S3        29.99F
$$

INZ001>003-010>013-019-020-070700-
NORTHWEST INDIANA

CITY           SKY/WX    TMP DP  RH WIND       PRES   REMARKS
GARY*          CLEAR     36  29  76 S5        30.07F
6HR MIN TEMP:  32; 6HR MAX TEMP:  36;

MICHIGAN CITY* NOT AVBL
RENSSELAER*    NOT AVBL
VALPARAISO     CLEAR     32  27  81 S5        30.07F WCI  27
$$

LMZ740>746-070700-
SOUTHERN LAKE MICHIGAN

STATION/POSITION TIME  SKY/WX   TEMP WIND        PRES    VSBY
                                AIR  DIR/SP/G
                 (UTC)          (F)  (DEG/KT/KT) (MB)    (MI)
HARRISON CRIB    0520            38  200/ 12/ 13   N/A
BURNHAM HARBOR   0600            37  220/  7/  7   N/A
CALUMET HARBOR   0500            35  180/  5/  9 1017.5F
BURNS HARBOR     0500            35  180/ 10/ 12 1019.0F
MICHIGAN CITY    0500            37  150/ 15/ 18   N/A
$$

ABBREVIATIONS USED IN REMARKS
   TC - TEMPERATURE IN CELSIUS
  WCI - WIND CHILL INDEX
   HX - HEAT INDEX
  VSB - VISIBILITY
$$




USA.gov is the U.S. government's official web portal to all federal, state and local government web resources and services.